owner,sensor,date,latitude,longitude,vertical_datum,wind_speed,wind_to_direction,wind_speed_of_gust,qcFlag 
DISL,ioos:station:DISL:MHPA:1,2019-09-01T00:00:00Z,30.6671,-87.9365,8.5,0.0,0.0,-9999.0,'11111222,11111222,99999222' 
DISL,ioos:station:DISL:MHPA:1,2019-09-01T01:00:00Z,30.6671,-87.9365,8.5,0.0,0.0,-9999.0,'11111222,11111222,99999222' 
DISL,ioos:station:DISL:MHPA:1,2019-09-01T02:00:00Z,30.6671,-87.9365,8.5,0.0,0.0,-9999.0,'11111222,11111222,99999222' 
DISL,ioos:station:DISL:MHPA:1,2019-09-01T03:00:00Z,30.6671,-87.9365,8.5,0.06,19.88,-9999.0,'11111222,11111222,99999222' 
DISL,ioos:station:DISL:MHPA:1,2019-09-01T04:00:00Z,30.6671,-87.9365,8.5,1.07,12.21,-9999.0,'11111222,11111222,99999222' 
DISL,ioos:station:DISL:MHPA:1,2019-09-01T05:00:00Z,30.6671,-87.9365,8.5,1.49,30.91,-9999.0,'11111222,11111222,99999222' 
DISL,ioos:station:DISL:MHPA:1,2019-09-01T06:00:00Z,30.6671,-87.9365,8.5,0.51,69.03,-9999.0,'11111222,11111222,99999222' 
DISL,ioos:station:DISL:MHPA:1,2019-09-01T07:00:00Z,30.6671,-87.9365,8.5,0.46,101.6,-9999.0,'11111222,11111222,99999222' 
DISL,ioos:station:DISL:MHPA:1,2019-09-01T08:00:00Z,30.6671,-87.9365,8.5,1.08,327.6,-9999.0,'11111222,11111222,99999222' 
DISL,ioos:station:DISL:MHPA:1,2019-09-01T09:00:00Z,30.6671,-87.9365,8.5,0.42,37.31,-9999.0,'11111222,11111222,99999222' 
DISL,ioos:station:DISL:MHPA:1,2019-09-01T10:00:00Z,30.6671,-87.9365,8.5,0.0,0.0,-9999.0,'11111222,11111222,99999222' 
DISL,ioos:station:DISL:MHPA:1,2019-09-01T11:00:00Z,30.6671,-87.9365,8.5,0.0,0.0,-9999.0,'11111222,11111222,99999222' 
DISL,ioos:station:DISL:MHPA:1,2019-09-01T12:00:00Z,30.6671,-87.9365,8.5,0.0,0.0,-9999.0,'11111222,11111222,99999222' 
DISL,ioos:station:DISL:MHPA:1,2019-09-01T13:00:00Z,30.6671,-87.9365,8.5,0.0,0.0,-9999.0,'11111222,11111222,99999222' 
DISL,ioos:station:DISL:MHPA:1,2019-09-01T14:00:00Z,30.6671,-87.9365,8.5,1.44,46.42,-9999.0,'11111222,11111222,99999222' 
DISL,ioos:station:DISL:MHPA:1,2019-09-01T15:00:00Z,30.6671,-87.9365,8.5,1.31,41.37,-9999.0,'11111222,11111222,99999222' 
DISL,ioos:station:DISL:MHPA:1,2019-09-01T16:00:00Z,30.6671,-87.9365,8.5,2.04,57.52,-9999.0,'11111222,11111222,99999222' 
DISL,ioos:station:DISL:MHPA:1,2019-09-01T17:00:00Z,30.6671,-87.9365,8.5,2.17,6.192,-9999.0,'11111222,11111222,99999222' 
DISL,ioos:station:DISL:MHPA:1,2019-09-01T18:00:00Z,30.6671,-87.9365,8.5,2.02,5.82,-9999.0,'11111222,11111222,99999222' 
DISL,ioos:station:DISL:MHPA:1,2019-09-01T19:00:00Z,30.6671,-87.9365,8.5,1.8,351.8,-9999.0,'11111222,11111222,99999222' 
DISL,ioos:station:DISL:MHPA:1,2019-09-01T20:00:00Z,30.6671,-87.9365,8.5,1.96,355.9,-9999.0,'11111222,11111222,99999222' 
DISL,ioos:station:DISL:MHPA:1,2019-09-01T21:00:00Z,30.6671,-87.9365,8.5,1.84,353.7,-9999.0,'11111222,11111222,99999222' 
DISL,ioos:station:DISL:MHPA:1,2019-09-01T22:00:00Z,30.6671,-87.9365,8.5,1.74,349.9,-9999.0,'11111222,11111222,99999222' 
DISL,ioos:station:DISL:MHPA:1,2019-09-01T23:00:00Z,30.6671,-87.9365,8.5,0.76,348.0,-9999.0,'11111222,11111222,99999222' 
DISL,ioos:station:DISL:MHPA:1,2019-09-02T00:00:00Z,30.6671,-87.9365,8.5,0.0,6.949,-9999.0,'11111222,11111222,99999222' 
DISL,ioos:station:DISL:MHPA:1,2019-09-02T01:00:00Z,30.6671,-87.9365,8.5,0.04,15.8,-9999.0,'11111222,11111222,99999222' 
DISL,ioos:station:DISL:MHPA:1,2019-09-02T02:00:00Z,30.6671,-87.9365,8.5,0.83,14.57,-9999.0,'11111222,11111222,99999222' 
DISL,ioos:station:DISL:MHPA:1,2019-09-02T03:00:00Z,30.6671,-87.9365,8.5,0.47,20.89,-9999.0,'11111222,11111222,99999222' 
DISL,ioos:station:DISL:MHPA:1,2019-09-02T04:00:00Z,30.6671,-87.9365,8.5,0.05,3.003,-9999.0,'11111222,11111222,99999222' 
DISL,ioos:station:DISL:MHPA:1,2019-09-02T05:00:00Z,30.6671,-87.9365,8.5,0.8,16.82,-9999.0,'11111222,11111222,99999222' 
DISL,ioos:station:DISL:MHPA:1,2019-09-02T06:00:00Z,30.6671,-87.9365,8.5,0.91,27.17,-9999.0,'11111222,11111222,99999222' 
DISL,ioos:station:DISL:MHPA:1,2019-09-02T07:00:00Z,30.6671,-87.9365,8.5,0.73,18.71,-9999.0,'11111222,11111222,99999222' 
DISL,ioos:station:DISL:MHPA:1,2019-09-02T08:00:00Z,30.6671,-87.9365,8.5,0.34,28.49,-9999.0,'11111222,11111222,99999222' 
DISL,ioos:station:DISL:MHPA:1,2019-09-02T09:00:00Z,30.6671,-87.9365,8.5,0.37,354.8,-9999.0,'11111222,11111222,99999222' 
DISL,ioos:station:DISL:MHPA:1,2019-09-02T10:00:00Z,30.6671,-87.9365,8.5,0.8,1.173,-9999.0,'11111222,11111222,99999222' 
DISL,ioos:station:DISL:MHPA:1,2019-09-02T11:00:00Z,30.6671,-87.9365,8.5,0.71,8.66,-9999.0,'11111222,11111222,99999222' 
DISL,ioos:station:DISL:MHPA:1,2019-09-02T12:00:00Z,30.6671,-87.9365,8.5,1.11,349.9,-9999.0,'11111222,11111222,99999222' 
DISL,ioos:station:DISL:MHPA:1,2019-09-02T13:00:00Z,30.6671,-87.9365,8.5,1.81,15.52,-9999.0,'11111222,11111222,99999222' 
DISL,ioos:station:DISL:MHPA:1,2019-09-02T16:00:00Z,30.6671,-87.9365,8.5,1.36,63.94,-9999.0,'11111222,11111222,99999222' 
DISL,ioos:station:DISL:MHPA:1,2019-09-02T17:00:00Z,30.6671,-87.9365,8.5,2.37,14.13,-9999.0,'11111222,11111222,99999222' 
DISL,ioos:station:DISL:MHPA:1,2019-09-02T18:00:00Z,30.6671,-87.9365,8.5,2.16,32.44,-9999.0,'11111222,11111222,99999222' 
DISL,ioos:station:DISL:MHPA:1,2019-09-02T19:00:00Z,30.6671,-87.9365,8.5,2.63,27.69,-9999.0,'11111222,11111222,99999222' 
DISL,ioos:station:DISL:MHPA:1,2019-09-02T20:00:00Z,30.6671,-87.9365,8.5,2.3,353.9,-9999.0,'11111222,11111222,99999222' 
DISL,ioos:station:DISL:MHPA:1,2019-09-02T21:00:00Z,30.6671,-87.9365,8.5,1.32,26.04,-9999.0,'11111222,11111222,99999222' 
DISL,ioos:station:DISL:MHPA:1,2019-09-02T22:00:00Z,30.6671,-87.9365,8.5,1.81,70.25,-9999.0,'11111222,11111222,99999222' 
DISL,ioos:station:DISL:MHPA:1,2019-09-02T23:00:00Z,30.6671,-87.9365,8.5,1.76,18.07,-9999.0,'11111222,11111222,99999222' 
DISL,ioos:station:DISL:MHPA:1,2019-09-03T00:00:00Z,30.6671,-87.9365,8.5,1.11,25.95,-9999.0,'11111222,11111222,99999222' 
DISL,ioos:station:DISL:MHPA:1,2019-09-03T01:00:00Z,30.6671,-87.9365,8.5,0.81,27.2,-9999.0,'11111222,11111222,99999222' 
DISL,ioos:station:DISL:MHPA:1,2019-09-03T02:00:00Z,30.6671,-87.9365,8.5,0.64,18.31,-9999.0,'11111222,11111222,99999222' 
DISL,ioos:station:DISL:MHPA:1,2019-09-03T03:00:00Z,30.6671,-87.9365,8.5,0.84,30.75,-9999.0,'11111222,11111222,99999222' 
DISL,ioos:station:DISL:MHPA:1,2019-09-03T04:00:00Z,30.6671,-87.9365,8.5,0.17,4.015,-9999.0,'11111222,11111222,99999222' 
DISL,ioos:station:DISL:MHPA:1,2019-09-03T05:00:00Z,30.6671,-87.9365,8.5,0.0,1.915,-9999.0,'11111222,11111222,99999222' 
DISL,ioos:station:DISL:MHPA:1,2019-09-03T06:00:00Z,30.6671,-87.9365,8.5,0.38,341.7,-9999.0,'11111222,11111222,99999222' 
DISL,ioos:station:DISL:MHPA:1,2019-09-03T07:00:00Z,30.6671,-87.9365,8.5,0.04,341.4,-9999.0,'11111222,11111222,99999222' 
DISL,ioos:station:DISL:MHPA:1,2019-09-03T08:00:00Z,30.6671,-87.9365,8.5,0.0,0.0,-9999.0,'11111222,11111222,99999222' 
DISL,ioos:station:DISL:MHPA:1,2019-09-03T09:00:00Z,30.6671,-87.9365,8.5,0.12,350.3,-9999.0,'11111222,11111222,99999222' 
DISL,ioos:station:DISL:MHPA:1,2019-09-03T10:00:00Z,30.6671,-87.9365,8.5,0.83,348.2,-9999.0,'11111222,11111222,99999222' 
DISL,ioos:station:DISL:MHPA:1,2019-09-03T11:00:00Z,30.6671,-87.9365,8.5,0.0,0.0,-9999.0,'11111222,11111222,99999222' 
DISL,ioos:station:DISL:MHPA:1,2019-09-03T12:00:00Z,30.6671,-87.9365,8.5,0.45,20.9,-9999.0,'11111222,11111222,99999222' 
DISL,ioos:station:DISL:MHPA:1,2019-09-03T13:00:00Z,30.6671,-87.9365,8.5,0.71,18.53,-9999.0,'11111222,11111222,99999222' 
DISL,ioos:station:DISL:MHPA:1,2019-09-03T14:00:00Z,30.6671,-87.9365,8.5,1.09,333.1,-9999.0,'11111222,11111222,99999222' 
DISL,ioos:station:DISL:MHPA:1,2019-09-03T15:00:00Z,30.6671,-87.9365,8.5,0.71,55.5,-9999.0,'11111222,11111222,99999222' 
DISL,ioos:station:DISL:MHPA:1,2019-09-03T16:00:00Z,30.6671,-87.9365,8.5,1.57,29.66,-9999.0,'11111222,11111222,99999222' 
DISL,ioos:station:DISL:MHPA:1,2019-09-03T17:00:00Z,30.6671,-87.9365,8.5,1.27,49.46,-9999.0,'11111222,11111222,99999222' 
DISL,ioos:station:DISL:MHPA:1,2019-09-03T18:00:00Z,30.6671,-87.9365,8.5,1.42,27.16,-9999.0,'11111222,11111222,99999222' 
DISL,ioos:station:DISL:MHPA:1,2019-09-03T19:00:00Z,30.6671,-87.9365,8.5,1.62,43.04,-9999.0,'11111222,11111222,99999222' 
DISL,ioos:station:DISL:MHPA:1,2019-09-03T20:00:00Z,30.6671,-87.9365,8.5,2.19,10.11,-9999.0,'11111222,11111222,99999222' 
DISL,ioos:station:DISL:MHPA:1,2019-09-03T21:00:00Z,30.6671,-87.9365,8.5,2.52,0.056,-9999.0,'11111222,11111222,99999222' 
DISL,ioos:station:DISL:MHPA:1,2019-09-03T22:00:00Z,30.6671,-87.9365,8.5,2.04,26.45,-9999.0,'11111222,11111222,99999222' 
DISL,ioos:station:DISL:MHPA:1,2019-09-03T23:00:00Z,30.6671,-87.9365,8.5,1.23,6.323,-9999.0,'11111222,11111222,99999222' 
DISL,ioos:station:DISL:MHPA:1,2019-09-04T00:00:00Z,30.6671,-87.9365,8.5,0.29,16.7,-9999.0,'11111222,11111222,99999222' 
DISL,ioos:station:DISL:MHPA:1,2019-09-04T01:00:00Z,30.6671,-87.9365,8.5,0.02,5.858,-9999.0,'11111222,11111222,99999222' 
DISL,ioos:station:DISL:MHPA:1,2019-09-04T02:00:00Z,30.6671,-87.9365,8.5,0.19,11.64,-9999.0,'11111222,11111222,99999222' 
DISL,ioos:station:DISL:MHPA:1,2019-09-04T03:00:00Z,30.6671,-87.9365,8.5,0.0,0.0,-9999.0,'11111222,11111222,99999222' 
DISL,ioos:station:DISL:MHPA:1,2019-09-04T04:00:00Z,30.6671,-87.9365,8.5,0.01,357.5,-9999.0,'11111222,11111222,99999222' 
DISL,ioos:station:DISL:MHPA:1,2019-09-04T05:00:00Z,30.6671,-87.9365,8.5,0.12,354.0,-9999.0,'11111222,11111222,99999222' 
DISL,ioos:station:DISL:MHPA:1,2019-09-04T06:00:00Z,30.6671,-87.9365,8.5,0.0,0.0,-9999.0,'11111222,11111222,99999222' 
DISL,ioos:station:DISL:MHPA:1,2019-09-04T07:00:00Z,30.6671,-87.9365,8.5,0.26,350.8,-9999.0,'11111222,11111222,99999222' 
DISL,ioos:station:DISL:MHPA:1,2019-09-04T08:00:00Z,30.6671,-87.9365,8.5,0.25,356.6,-9999.0,'11111222,11111222,99999222' 
DISL,ioos:station:DISL:MHPA:1,2019-09-04T09:00:00Z,30.6671,-87.9365,8.5,0.02,352.7,-9999.0,'11111222,11111222,99999222' 
DISL,ioos:station:DISL:MHPA:1,2019-09-04T10:00:00Z,30.6671,-87.9365,8.5,0.06,354.2,-9999.0,'11111222,11111222,99999222' 
DISL,ioos:station:DISL:MHPA:1,2019-09-04T11:00:00Z,30.6671,-87.9365,8.5,0.0,0.0,-9999.0,'11111222,11111222,99999222' 
DISL,ioos:station:DISL:MHPA:1,2019-09-04T12:00:00Z,30.6671,-87.9365,8.5,0.01,345.0,-9999.0,'11111222,11111222,99999222' 
DISL,ioos:station:DISL:MHPA:1,2019-09-04T13:00:00Z,30.6671,-87.9365,8.5,0.12,5.99,-9999.0,'11111222,11111222,99999222' 
DISL,ioos:station:DISL:MHPA:1,2019-09-04T14:00:00Z,30.6671,-87.9365,8.5,1.49,4.967,-9999.0,'11111222,11111222,99999222' 
DISL,ioos:station:DISL:MHPA:1,2019-09-04T15:00:00Z,30.6671,-87.9365,8.5,0.63,13.35,-9999.0,'11111222,11111222,99999222' 
DISL,ioos:station:DISL:MHPA:1,2019-09-04T16:00:00Z,30.6671,-87.9365,8.5,1.17,345.4,-9999.0,'11111222,11111222,99999222' 
DISL,ioos:station:DISL:MHPA:1,2019-09-04T17:00:00Z,30.6671,-87.9365,8.5,2.89,326.9,-9999.0,'11111222,11111222,99999222' 
DISL,ioos:station:DISL:MHPA:1,2019-09-04T18:00:00Z,30.6671,-87.9365,8.5,2.4,351.0,-9999.0,'11111222,11111222,99999222' 
DISL,ioos:station:DISL:MHPA:1,2019-09-04T19:00:00Z,30.6671,-87.9365,8.5,2.32,332.7,-9999.0,'11111222,11111222,99999222' 
DISL,ioos:station:DISL:MHPA:1,2019-09-04T20:00:00Z,30.6671,-87.9365,8.5,2.26,333.2,-9999.0,'11111222,11111222,99999222' 
DISL,ioos:station:DISL:MHPA:1,2019-09-04T21:00:00Z,30.6671,-87.9365,8.5,1.6,0.77,-9999.0,'11111222,11111222,99999222' 
DISL,ioos:station:DISL:MHPA:1,2019-09-04T22:00:00Z,30.6671,-87.9365,8.5,1.82,336.7,-9999.0,'11111222,11111222,99999222' 
DISL,ioos:station:DISL:MHPA:1,2019-09-04T23:00:00Z,30.6671,-87.9365,8.5,1.75,334.8,-9999.0,'11111222,11111222,99999222' 
DISL,ioos:station:DISL:MHPA:1,2019-09-05T00:00:00Z,30.6671,-87.9365,8.5,0.1,0.026,-9999.0,'11111222,11111222,99999222' 
DISL,ioos:station:DISL:MHPA:1,2019-09-05T01:00:00Z,30.6671,-87.9365,8.5,0.0,0.0,-9999.0,'11111222,11111222,99999222' 
DISL,ioos:station:DISL:MHPA:1,2019-09-05T02:00:00Z,30.6671,-87.9365,8.5,0.0,0.0,-9999.0,'11111222,11111222,99999222' 
DISL,ioos:station:DISL:MHPA:1,2019-09-05T03:00:00Z,30.6671,-87.9365,8.5,0.0,0.0,-9999.0,'11111222,11111222,99999222' 
DISL,ioos:station:DISL:MHPA:1,2019-09-05T04:00:00Z,30.6671,-87.9365,8.5,0.0,0.0,-9999.0,'11111222,11111222,99999222' 
DISL,ioos:station:DISL:MHPA:1,2019-09-05T05:00:00Z,30.6671,-87.9365,8.5,0.0,0.0,-9999.0,'11111222,11111222,99999222' 
DISL,ioos:station:DISL:MHPA:1,2019-09-05T06:00:00Z,30.6671,-87.9365,8.5,0.0,0.0,-9999.0,'11111222,11111222,99999222' 
DISL,ioos:station:DISL:MHPA:1,2019-09-05T07:00:00Z,30.6671,-87.9365,8.5,0.0,0.0,-9999.0,'11111222,11111222,99999222' 
DISL,ioos:station:DISL:MHPA:1,2019-09-05T08:00:00Z,30.6671,-87.9365,8.5,0.0,0.0,-9999.0,'11111222,11111222,99999222' 
DISL,ioos:station:DISL:MHPA:1,2019-09-05T09:00:00Z,30.6671,-87.9365,8.5,0.0,0.0,-9999.0,'11111222,11111222,99999222' 
DISL,ioos:station:DISL:MHPA:1,2019-09-05T10:00:00Z,30.6671,-87.9365,8.5,0.0,0.0,-9999.0,'11111222,11111222,99999222' 
DISL,ioos:station:DISL:MHPA:1,2019-09-05T11:00:00Z,30.6671,-87.9365,8.5,0.0,0.0,-9999.0,'11111222,11111222,99999222' 
DISL,ioos:station:DISL:MHPA:1,2019-09-05T12:00:00Z,30.6671,-87.9365,8.5,0.0,0.0,-9999.0,'11111222,11111222,99999222' 
DISL,ioos:station:DISL:MHPA:1,2019-09-05T13:00:00Z,30.6671,-87.9365,8.5,0.0,0.0,-9999.0,'11111222,11111222,99999222' 
DISL,ioos:station:DISL:MHPA:1,2019-09-05T14:00:00Z,30.6671,-87.9365,8.5,1.41,339.8,-9999.0,'11111222,11111222,99999222' 
DISL,ioos:station:DISL:MHPA:1,2019-09-05T15:00:00Z,30.6671,-87.9365,8.5,1.58,2.664,-9999.0,'11111222,11111222,99999222' 
DISL,ioos:station:DISL:MHPA:1,2019-09-05T16:00:00Z,30.6671,-87.9365,8.5,1.03,337.6,-9999.0,'11111222,11111222,99999222' 
DISL,ioos:station:DISL:MHPA:1,2019-09-05T17:00:00Z,30.6671,-87.9365,8.5,1.97,343.9,-9999.0,'11111222,11111222,99999222' 
DISL,ioos:station:DISL:MHPA:1,2019-09-05T18:00:00Z,30.6671,-87.9365,8.5,2.49,321.0,-9999.0,'11111222,11111222,99999222' 
DISL,ioos:station:DISL:MHPA:1,2019-09-05T19:00:00Z,30.6671,-87.9365,8.5,2.3,295.8,-9999.0,'11111222,11111222,99999222' 
DISL,ioos:station:DISL:MHPA:1,2019-09-05T20:00:00Z,30.6671,-87.9365,8.5,2.72,291.0,-9999.0,'11111222,11111222,99999222' 
DISL,ioos:station:DISL:MHPA:1,2019-09-05T21:00:00Z,30.6671,-87.9365,8.5,2.8,288.8,-9999.0,'11111222,11111222,99999222' 
DISL,ioos:station:DISL:MHPA:1,2019-09-05T22:00:00Z,30.6671,-87.9365,8.5,2.63,293.1,-9999.0,'11111222,11111222,99999222' 
DISL,ioos:station:DISL:MHPA:1,2019-09-05T23:00:00Z,30.6671,-87.9365,8.5,2.63,305.5,-9999.0,'11111222,11111222,99999222' 
DISL,ioos:station:DISL:MHPA:1,2019-09-06T00:00:00Z,30.6671,-87.9365,8.5,1.26,307.4,-9999.0,'11111222,11111222,99999222' 
DISL,ioos:station:DISL:MHPA:1,2019-09-06T01:00:00Z,30.6671,-87.9365,8.5,1.27,300.0,-9999.0,'11111222,11111222,99999222' 
DISL,ioos:station:DISL:MHPA:1,2019-09-06T02:00:00Z,30.6671,-87.9365,8.5,1.56,310.2,-9999.0,'11111222,11111222,99999222' 
DISL,ioos:station:DISL:MHPA:1,2019-09-06T03:00:00Z,30.6671,-87.9365,8.5,2.04,310.3,-9999.0,'11111222,11111222,99999222' 
DISL,ioos:station:DISL:MHPA:1,2019-09-06T04:00:00Z,30.6671,-87.9365,8.5,0.29,343.1,-9999.0,'11111222,11111222,99999222' 
DISL,ioos:station:DISL:MHPA:1,2019-09-06T05:00:00Z,30.6671,-87.9365,8.5,0.0,11.55,-9999.0,'11111222,11111222,99999222' 
DISL,ioos:station:DISL:MHPA:1,2019-09-06T06:00:00Z,30.6671,-87.9365,8.5,0.86,339.1,-9999.0,'11111222,11111222,99999222' 
DISL,ioos:station:DISL:MHPA:1,2019-09-06T09:00:00Z,30.6671,-87.9365,8.5,0.0,0.0,-9999.0,'11111222,11111222,99999222' 
DISL,ioos:station:DISL:MHPA:1,2019-09-06T10:00:00Z,30.6671,-87.9365,8.5,0.02,0.192,-9999.0,'11111222,11111222,99999222' 
DISL,ioos:station:DISL:MHPA:1,2019-09-06T11:00:00Z,30.6671,-87.9365,8.5,0.45,328.9,-9999.0,'11111222,11111222,99999222' 
DISL,ioos:station:DISL:MHPA:1,2019-09-06T12:00:00Z,30.6671,-87.9365,8.5,0.13,328.9,-9999.0,'11111222,11111222,99999222' 
DISL,ioos:station:DISL:MHPA:1,2019-09-06T13:00:00Z,30.6671,-87.9365,8.5,0.92,326.2,-9999.0,'11111222,11111222,99999222' 
DISL,ioos:station:DISL:MHPA:1,2019-09-06T14:00:00Z,30.6671,-87.9365,8.5,1.54,337.3,-9999.0,'11111222,11111222,99999222' 
DISL,ioos:station:DISL:MHPA:1,2019-09-06T15:00:00Z,30.6671,-87.9365,8.5,1.68,324.2,-9999.0,'11111222,11111222,99999222' 
DISL,ioos:station:DISL:MHPA:1,2019-09-06T16:00:00Z,30.6671,-87.9365,8.5,1.79,7.958,-9999.0,'11111222,11111222,99999222' 
DISL,ioos:station:DISL:MHPA:1,2019-09-06T17:00:00Z,30.6671,-87.9365,8.5,3.22,331.2,-9999.0,'11111222,11111222,99999222' 
DISL,ioos:station:DISL:MHPA:1,2019-09-06T18:00:00Z,30.6671,-87.9365,8.5,3.02,332.8,-9999.0,'11111222,11111222,99999222' 
DISL,ioos:station:DISL:MHPA:1,2019-09-06T19:00:00Z,30.6671,-87.9365,8.5,2.76,339.5,-9999.0,'11111222,11111222,99999222' 
DISL,ioos:station:DISL:MHPA:1,2019-09-06T20:00:00Z,30.6671,-87.9365,8.5,2.36,340.8,-9999.0,'11111222,11111222,99999222' 
DISL,ioos:station:DISL:MHPA:1,2019-09-06T21:00:00Z,30.6671,-87.9365,8.5,2.11,3.881,-9999.0,'11111222,11111222,99999222' 
DISL,ioos:station:DISL:MHPA:1,2019-09-06T22:00:00Z,30.6671,-87.9365,8.5,1.31,359.5,-9999.0,'11111222,11144222,99999222' 
DISL,ioos:station:DISL:MHPA:1,2019-09-06T23:00:00Z,30.6671,-87.9365,8.5,0.86,6.567,-9999.0,'11111222,11111222,99999222' 
DISL,ioos:station:DISL:MHPA:1,2019-09-07T00:00:00Z,30.6671,-87.9365,8.5,0.11,17.85,-9999.0,'11111222,11111222,99999222' 
DISL,ioos:station:DISL:MHPA:1,2019-09-07T01:00:00Z,30.6671,-87.9365,8.5,0.0,18.59,-9999.0,'11111222,11111222,99999222' 
DISL,ioos:station:DISL:MHPA:1,2019-09-07T02:00:00Z,30.6671,-87.9365,8.5,0.0,0.0,-9999.0,'11111222,11111222,99999222' 
DISL,ioos:station:DISL:MHPA:1,2019-09-07T03:00:00Z,30.6671,-87.9365,8.5,0.0,0.0,-9999.0,'11111222,11111222,99999222' 
DISL,ioos:station:DISL:MHPA:1,2019-09-07T04:00:00Z,30.6671,-87.9365,8.5,0.0,0.0,-9999.0,'11111222,11111222,99999222' 
DISL,ioos:station:DISL:MHPA:1,2019-09-07T05:00:00Z,30.6671,-87.9365,8.5,0.0,0.0,-9999.0,'11111222,11111222,99999222' 
DISL,ioos:station:DISL:MHPA:1,2019-09-07T06:00:00Z,30.6671,-87.9365,8.5,0.0,0.0,-9999.0,'11111222,11111222,99999222' 
DISL,ioos:station:DISL:MHPA:1,2019-09-07T07:00:00Z,30.6671,-87.9365,8.5,0.0,0.0,-9999.0,'11111222,11111222,99999222' 
DISL,ioos:station:DISL:MHPA:1,2019-09-07T08:00:00Z,30.6671,-87.9365,8.5,0.0,0.0,-9999.0,'11111222,11111222,99999222' 
DISL,ioos:station:DISL:MHPA:1,2019-09-07T09:00:00Z,30.6671,-87.9365,8.5,0.0,0.0,-9999.0,'11111222,11111222,99999222' 
DISL,ioos:station:DISL:MHPA:1,2019-09-07T10:00:00Z,30.6671,-87.9365,8.5,0.0,0.0,-9999.0,'11111222,11111222,99999222' 
DISL,ioos:station:DISL:MHPA:1,2019-09-07T11:00:00Z,30.6671,-87.9365,8.5,0.0,0.0,-9999.0,'11111222,11111222,99999222' 
DISL,ioos:station:DISL:MHPA:1,2019-09-07T12:00:00Z,30.6671,-87.9365,8.5,0.0,0.0,-9999.0,'11111222,11111222,99999222' 
DISL,ioos:station:DISL:MHPA:1,2019-09-07T13:00:00Z,30.6671,-87.9365,8.5,0.0,0.0,-9999.0,'11111222,11111222,99999222' 
DISL,ioos:station:DISL:MHPA:1,2019-09-07T14:00:00Z,30.6671,-87.9365,8.5,0.0,0.0,-9999.0,'11111222,11111222,99999222' 
DISL,ioos:station:DISL:MHPA:1,2019-09-07T15:00:00Z,30.6671,-87.9365,8.5,0.0,0.0,-9999.0,'11111222,11111222,99999222' 
DISL,ioos:station:DISL:MHPA:1,2019-09-07T16:00:00Z,30.6671,-87.9365,8.5,0.74,304.8,-9999.0,'11111222,11111222,99999222' 
DISL,ioos:station:DISL:MHPA:1,2019-09-07T17:00:00Z,30.6671,-87.9365,8.5,0.58,237.9,-9999.0,'11111222,11111222,99999222' 
DISL,ioos:station:DISL:MHPA:1,2019-09-07T18:00:00Z,30.6671,-87.9365,8.5,0.97,89.3,-9999.0,'11111222,11111222,99999222' 
DISL,ioos:station:DISL:MHPA:1,2019-09-07T19:00:00Z,30.6671,-87.9365,8.5,0.16,203.7,-9999.0,'11111222,11111222,99999222' 
DISL,ioos:station:DISL:MHPA:1,2019-09-07T20:00:00Z,30.6671,-87.9365,8.5,0.29,163.2,-9999.0,'11111222,11111222,99999222' 
DISL,ioos:station:DISL:MHPA:1,2019-09-07T21:00:00Z,30.6671,-87.9365,8.5,1.91,206.0,-9999.0,'11111222,11111222,99999222' 
DISL,ioos:station:DISL:MHPA:1,2019-09-07T22:00:00Z,30.6671,-87.9365,8.5,1.26,197.4,-9999.0,'11111222,11111222,99999222' 
DISL,ioos:station:DISL:MHPA:1,2019-09-07T23:00:00Z,30.6671,-87.9365,8.5,2.96,184.1,-9999.0,'11111222,11111222,99999222' 
DISL,ioos:station:DISL:MHPA:1,2019-09-08T00:00:00Z,30.6671,-87.9365,8.5,2.71,205.0,-9999.0,'11111222,11111222,99999222' 
DISL,ioos:station:DISL:MHPA:1,2019-09-08T01:00:00Z,30.6671,-87.9365,8.5,2.59,217.1,-9999.0,'11111222,11111222,99999222' 
DISL,ioos:station:DISL:MHPA:1,2019-09-08T02:00:00Z,30.6671,-87.9365,8.5,2.1,215.2,-9999.0,'11111222,11111222,99999222' 
DISL,ioos:station:DISL:MHPA:1,2019-09-08T03:00:00Z,30.6671,-87.9365,8.5,0.69,214.4,-9999.0,'11111222,11111222,99999222' 
DISL,ioos:station:DISL:MHPA:1,2019-09-08T04:00:00Z,30.6671,-87.9365,8.5,0.58,196.7,-9999.0,'11111222,11111222,99999222' 
DISL,ioos:station:DISL:MHPA:1,2019-09-08T05:00:00Z,30.6671,-87.9365,8.5,1.66,195.4,-9999.0,'11111222,11111222,99999222' 
DISL,ioos:station:DISL:MHPA:1,2019-09-08T06:00:00Z,30.6671,-87.9365,8.5,1.12,215.7,-9999.0,'11111222,11111222,99999222' 
DISL,ioos:station:DISL:MHPA:1,2019-09-08T07:00:00Z,30.6671,-87.9365,8.5,0.01,205.3,-9999.0,'11111222,11111222,99999222' 
DISL,ioos:station:DISL:MHPA:1,2019-09-08T08:00:00Z,30.6671,-87.9365,8.5,0.0,0.0,-9999.0,'11111222,11111222,99999222' 
DISL,ioos:station:DISL:MHPA:1,2019-09-08T09:00:00Z,30.6671,-87.9365,8.5,0.0,0.0,-9999.0,'11111222,11111222,99999222' 
DISL,ioos:station:DISL:MHPA:1,2019-09-08T10:00:00Z,30.6671,-87.9365,8.5,0.0,0.0,-9999.0,'11111222,11111222,99999222' 
DISL,ioos:station:DISL:MHPA:1,2019-09-08T11:00:00Z,30.6671,-87.9365,8.5,0.0,0.0,-9999.0,'11111222,11111222,99999222' 
DISL,ioos:station:DISL:MHPA:1,2019-09-08T12:00:00Z,30.6671,-87.9365,8.5,0.0,0.0,-9999.0,'11111222,11111222,99999222' 
DISL,ioos:station:DISL:MHPA:1,2019-09-08T13:00:00Z,30.6671,-87.9365,8.5,0.0,0.0,-9999.0,'11111222,11111222,99999222' 
DISL,ioos:station:DISL:MHPA:1,2019-09-08T14:00:00Z,30.6671,-87.9365,8.5,0.15,18.47,-9999.0,'11111222,11111222,99999222' 
DISL,ioos:station:DISL:MHPA:1,2019-09-08T15:00:00Z,30.6671,-87.9365,8.5,0.0,0.0,-9999.0,'11111222,11111222,99999222' 
DISL,ioos:station:DISL:MHPA:1,2019-09-08T16:00:00Z,30.6671,-87.9365,8.5,0.63,299.7,-9999.0,'11111222,11111222,99999222' 
DISL,ioos:station:DISL:MHPA:1,2019-09-08T17:00:00Z,30.6671,-87.9365,8.5,1.08,241.3,-9999.0,'11111222,11111222,99999222' 
DISL,ioos:station:DISL:MHPA:1,2019-09-08T18:00:00Z,30.6671,-87.9365,8.5,2.1,226.2,-9999.0,'11111222,11111222,99999222' 
DISL,ioos:station:DISL:MHPA:1,2019-09-08T18:50:00Z,30.6671,-87.9365,8.5,1.77,230.0,-9999.0,'11111222,11111222,99999222' 
DISL,ioos:station:DISL:MHPA:1,2019-09-08T19:50:00Z,30.6671,-87.9365,8.5,2.08,211.5,-9999.0,'11111222,11111222,99999222' 
DISL,ioos:station:DISL:MHPA:1,2019-09-08T20:50:00Z,30.6671,-87.9365,8.5,4.21,180.7,-9999.0,'11111222,11111222,99999222' 
DISL,ioos:station:DISL:MHPA:1,2019-09-08T21:50:00Z,30.6671,-87.9365,8.5,4.98,177.7,-9999.0,'11111222,11111222,99999222' 
DISL,ioos:station:DISL:MHPA:1,2019-09-08T22:50:00Z,30.6671,-87.9365,8.5,4.8,179.4,-9999.0,'11111222,11111222,99999222' 
DISL,ioos:station:DISL:MHPA:1,2019-09-08T23:50:00Z,30.6671,-87.9365,8.5,4.16,174.9,-9999.0,'11111222,11111222,99999222' 
DISL,ioos:station:DISL:MHPA:1,2019-09-09T00:50:00Z,30.6671,-87.9365,8.5,3.81,179.6,-9999.0,'11111222,11111222,99999222' 
DISL,ioos:station:DISL:MHPA:1,2019-09-09T01:50:00Z,30.6671,-87.9365,8.5,2.91,192.3,-9999.0,'11111222,11111222,99999222' 
DISL,ioos:station:DISL:MHPA:1,2019-09-09T02:50:00Z,30.6671,-87.9365,8.5,2.79,203.2,-9999.0,'11111222,11111222,99999222' 
DISL,ioos:station:DISL:MHPA:1,2019-09-09T03:50:00Z,30.6671,-87.9365,8.5,2.45,207.6,-9999.0,'11111222,11111222,99999222' 
DISL,ioos:station:DISL:MHPA:1,2019-09-09T04:50:00Z,30.6671,-87.9365,8.5,1.92,217.7,-9999.0,'11111222,11111222,99999222' 
DISL,ioos:station:DISL:MHPA:1,2019-09-09T05:50:00Z,30.6671,-87.9365,8.5,1.11,221.7,-9999.0,'11111222,11111222,99999222' 
DISL,ioos:station:DISL:MHPA:1,2019-09-09T06:50:00Z,30.6671,-87.9365,8.5,0.92,216.5,-9999.0,'11111222,11111222,99999222' 
DISL,ioos:station:DISL:MHPA:1,2019-09-09T07:50:00Z,30.6671,-87.9365,8.5,2.41,187.1,-9999.0,'11111222,11111222,99999222' 
DISL,ioos:station:DISL:MHPA:1,2019-09-09T08:50:00Z,30.6671,-87.9365,8.5,0.37,107.4,-9999.0,'11111222,11111222,99999222' 